Location: McFarlands Corners
(41.4117°N, 81.3382°W)
Time: 15:31:53
(UTC+00:00)

Transit 2A - Pass Details

Date: 21 February 2026
Orbit: 590 x 954 km, 66.7° (Epoch: 7 March)

Event Time Altitude Azimuth Distance (km) Brightness Sun altitude
Rises 23:59:51 0° 338° (NNW) 3,596 9.7 -10.9°
Reaches altitude 10° 00:04:05 10° 5° (N) 2,596 8.6 -11.7°
Maximum altitude 00:06:49 13° 32° (NNE) 2,331 8.2 -12.2°
Enters shadow 00:08:50 11° 53° (NE) 2,420 8.1 -12.6°
